{"data":{"norad_id":64136,"epoch":"2026-09-20T21:52:47.161344Z","epoch_age_seconds":104741,"freshness":"FRESH","line1":"1 64136U 25111P   26263.91165696  .00016516  00000+0  60805-3 0  9992","line2":"2 64136  42.9999  55.0518 0001703 274.0396  86.0261 15.27595689 75327","mean_motion":15.27595689,"eccentricity":0.0001703,"inclination_deg":42.9999,"raan_deg":55.0518,"arg_perigee_deg":274.0396,"mean_anomaly_deg":86.0261,"bstar":0.00060805,"rev_number":7532,"period_min":94.265780557594,"perigee_km":481.83366593985,"apogee_km":484.17056992342,"semimajor_km":6861.1391179316,"source":"CELESTRAK","updated_at":"2026-09-21T09:00:35.235273Z"}}